TimeEDT,TemperatureF,Dew PointF,Humidity,Sea Level PressureIn,VisibilityMPH,Wind Direction,Wind SpeedMPH,Gust SpeedMPH,PrecipitationIn,Events,Conditions,WindDirDegrees,DateUTC
12:51 AM,75.9,73.9,94,30.29,10.0,Calm,Calm,-,N/A,,Mostly Cloudy,0,2013-07-14 04:51:00
12:58 AM,75.2,73.4,94,30.28,9.0,Calm,Calm,-,N/A,,Mostly Cloudy,0,2013-07-14 04:58:00
1:51 AM,77.0,73.9,90,30.29,9.0,NW,3.5,-,N/A,,Mostly Cloudy,320,2013-07-14 05:51:00
1:58 AM,77.0,73.4,89,30.29,10.0,WNW,3.5,-,N/A,,Overcast,300,2013-07-14 05:58:00
2:51 AM,77.0,73.9,90,30.30,9.0,Calm,Calm,-,N/A,,Overcast,0,2013-07-14 06:51:00
3:01 AM,77.0,73.4,89,30.30,9.0,NNW,3.5,-,N/A,,Overcast,340,2013-07-14 07:01:00
3:51 AM,77.0,73.9,90,30.30,10.0,Calm,Calm,-,N/A,,Overcast,0,2013-07-14 07:51:00
4:16 AM,77.0,73.4,89,30.30,9.0,Calm,Calm,-,N/A,,Overcast,0,2013-07-14 08:16:00
4:51 AM,77.0,73.9,90,30.30,9.0,Calm,Calm,-,N/A,,Overcast,0,2013-07-14 08:51:00
5:01 AM,77.0,73.4,89,30.31,9.0,Calm,Calm,-,N/A,,Overcast,0,2013-07-14 09:01:00
5:51 AM,77.0,73.9,90,30.31,9.0,South,3.5,-,N/A,,Mostly Cloudy,170,2013-07-14 09:51:00
6:43 AM,77.0,73.4,89,30.32,10.0,SSW,5.8,-,N/A,,Mostly Cloudy,200,2013-07-14 10:43:00
6:51 AM,77.0,73.9,90,30.33,10.0,South,6.9,-,N/A,,Mostly Cloudy,190,2013-07-14 10:51:00
7:06 AM,77.0,75.2,94,30.33,9.0,South,5.8,-,N/A,,Mostly Cloudy,190,2013-07-14 11:06:00
7:51 AM,78.1,75.0,90,30.34,8.0,SSW,4.6,-,N/A,,Mostly Cloudy,210,2013-07-14 11:51:00
8:51 AM,81.0,73.9,79,30.33,10.0,West,10.4,-,N/A,,Mostly Cloudy,260,2013-07-14 12:51:00
9:51 AM,82.9,73.9,74,30.32,10.0,West,9.2,-,N/A,,Mostly Cloudy,270,2013-07-14 13:51:00
10:23 AM,84.2,73.4,70,30.32,10.0,West,10.4,-,N/A,,Mostly Cloudy,260,2013-07-14 14:23:00
10:43 AM,84.2,73.4,70,30.32,10.0,WSW,10.4,-,N/A,,Mostly Cloudy,250,2013-07-14 14:43:00
10:51 AM,84.0,72.0,67,30.32,10.0,Variable,6.9,-,N/A,,Mostly Cloudy,0,2013-07-14 14:51:00
11:51 AM,87.1,73.0,63,30.31,10.0,WSW,11.5,-,N/A,,Mostly Cloudy,250,2013-07-14 15:51:00
12:51 PM,90.0,72.0,55,30.30,10.0,West,11.5,-,N/A,,Mostly Cloudy,280,2013-07-14 16:51:00
1:51 PM,90.0,71.1,54,30.29,10.0,WSW,6.9,-,N/A,,Mostly Cloudy,240,2013-07-14 17:51:00
2:51 PM,91.0,71.1,52,30.28,10.0,WSW,9.2,-,N/A,,Mostly Cloudy,250,2013-07-14 18:51:00
3:51 PM,91.9,69.1,47,30.26,10.0,WSW,11.5,20.7,N/A,,Mostly Cloudy,250,2013-07-14 19:51:00
4:51 PM,91.0,70.0,50,30.25,10.0,SW,12.7,18.4,N/A,,Mostly Cloudy,230,2013-07-14 20:51:00
5:51 PM,90.0,69.1,50,30.24,10.0,WSW,8.1,-,N/A,,Mostly Cloudy,250,2013-07-14 21:51:00
6:51 PM,90.0,69.1,50,30.24,10.0,SW,13.8,-,N/A,,Scattered Clouds,230,2013-07-14 22:51:00
7:51 PM,89.1,68.0,50,30.23,10.0,WSW,12.7,-,N/A,,Scattered Clouds,240,2013-07-14 23:51:00
8:51 PM,87.1,66.9,51,30.24,10.0,WSW,8.1,-,N/A,,Scattered Clouds,240,2013-07-15 00:51:00
9:51 PM,86.0,69.1,57,30.25,10.0,SW,6.9,-,N/A,,Partly Cloudy,230,2013-07-15 01:51:00
10:51 PM,84.0,70.0,63,30.25,10.0,SW,6.9,-,N/A,,Partly Cloudy,220,2013-07-15 02:51:00
11:51 PM,82.9,71.1,67,30.25,10.0,SW,8.1,-,N/A,,Partly Cloudy,230,2013-07-15 03:51:00